Погода в Боровихе

Россия / Алтайский край     53°30′23″N   83°50′29″E
темп.,
°C
ветер,
м/с
пор.,
м/с
влажн.,
%
обл.,
%
осадки,
мм/ч
давл.,
гПа
погр.,
м
7 мая, пт
пт701:00+17ююв3105997 0.0 1003181
04:00+19зюз41048100 0.0 1003266
07:00+15зсз31070100 0.0 1006403
10:00+17сз5863100 0.0 1008676
13:00+18зсз4652100 0.0 10111366
16:00+20сз6728100 0.0 10122153
19:00+17зсз4734100 0.0 10141915
22:00+12з3751100 0.0 1017148
8 мая, сб
сб801:00+10з36564 0.0 1019116
04:00+8зсз24635 0.0 102063
07:00+8зсз24620 0.0 1021135
10:00+15з23360 0.0 1021966
13:00+18з35292 0.0 10201852
16:00+20з46305 0.0 10182358
19:00+20з46358 0.0 10182391
22:00+14зюз35535 0.0 101873
9 мая, вс
вс901:00+13зюз375486 0.0 1018133
04:00+13з3855100 0.0 1018203
07:00+12з386078 0.0 1018201
10:00+17с345039 0.0 1017826
13:00+19с45385 0.0 10171579
16:00+19с56356 0.0 10161894
19:00+17ссв553750 0.0 10171391
22:00+11св4114827 0.0 1018441
10 мая, пн
пн1001:00+9всв4125211 0.0 1018431
04:00+6всв412615 0.0 1018390
07:00+6св5136112 0.0 1017480
10:00+11св694280 0.0 1015857
13:00+15всв6836100 0.0 10131514
16:00+16в5734100 0.0 10121779
19:00+15св5940100 0.0 10101540
22:00+10ссв3853100 0.0 1011180
11 мая, вт
вт1101:00+9св5125367 0.0 1011416
04:00+7ссв410675 0.0 1012316
07:00+6ссв397262 0.0 1012349
10:00+11ссв345198 0.0 1012796
13:00+16св3339100 0.0 10121619
16:00+17ссв3334100 0.0 10112170
19:00+17с2338100 0.0 1011531
22:00+14ссз2248100 0.0 101224